Zurück zum Katalog

STARLINK-37035

AktivKommunikationVLEO
NORAD 68180·PAYLOAD·🇺🇸 United States

Gestartet Mar 14, 2026 von Vandenberg Space Force Base

Loading…

Nächste Überflüge (nächste 24 Stunden)

TLE

AktuellSource: CelesTrak SupGP

Epoche: Sep 15, 2026, 03:28 UTC

1 68180C 26050P   26258.14493056 -.00000649  00000+0 -19179-4 0  2580
2 68180  53.1566 102.7137 0001212  85.5670  18.2094 15.34391993    11

Verfolge STARLINK-37035 in Echtzeit mit AllMySat

Download on the App Store